Time,TemperatureF,DewpointF,PressureIn,WindDirection,WindDirectionDegrees,WindSpeedMPH,WindSpeedGustMPH,Humidity,HourlyPrecipIn,Conditions,Clouds,dailyrainin,SoftwareType,DateUTC
2013-08-18 00:02:00,-999.0,-99.9,-100.00,South,170,15.0,26.0,-999,-99.99,,,-99.99,,2013-08-18 08:02:00,
2013-08-18 00:12:00,-999.0,-99.9,-100.00,SSW,211,24.0,29.0,-999,-99.99,,,-99.99,,2013-08-18 08:12:00,
2013-08-18 00:22:00,-999.0,-99.9,-100.00,South,185,26.0,30.0,-999,-99.99,,,-99.99,,2013-08-18 08:22:00,
2013-08-18 00:32:00,-999.0,-99.9,-100.00,South,189,24.0,26.0,-999,-99.99,,,-99.99,,2013-08-18 08:32:00,
2013-08-18 00:42:00,-999.0,-99.9,-100.00,SSW,193,27.0,30.0,-999,-99.99,,,-99.99,,2013-08-18 08:42:00,
2013-08-18 00:52:00,-999.0,-99.9,-100.00,South,190,23.0,28.0,-999,-99.99,,,-99.99,,2013-08-18 08:52:00,
2013-08-18 01:02:00,-999.0,-99.9,-100.00,South,189,30.0,31.0,-999,-99.99,,,-99.99,,2013-08-18 09:02:00,
2013-08-18 01:11:00,-999.0,-99.9,-100.00,SSW,192,19.0,22.0,-999,-99.99,,,-99.99,,2013-08-18 09:11:00,
2013-08-18 01:22:00,-999.0,-99.9,-100.00,SSW,194,19.0,29.0,-999,-99.99,,,-99.99,,2013-08-18 09:22:00,
2013-08-18 01:33:00,-999.0,-99.9,-100.00,SSW,193,18.0,33.0,-999,-99.99,,,-99.99,,2013-08-18 09:33:00,
2013-08-18 01:43:00,-999.0,-99.9,-100.00,SSW,193,15.0,28.0,-999,-99.99,,,-99.99,,2013-08-18 09:43:00,
2013-08-18 01:53:00,-999.0,-99.9,-100.00,SSW,199,21.0,21.0,-999,-99.99,,,-99.99,,2013-08-18 09:53:00,
2013-08-18 02:03:00,-999.0,-99.9,-100.00,SSW,206,14.0,14.0,-999,-99.99,,,-99.99,,2013-08-18 10:03:00,
2013-08-18 02:13:00,-999.0,-99.9,-100.00,South,180,16.0,17.0,-999,-99.99,,,-99.99,,2013-08-18 10:13:00,
2013-08-18 02:23:00,-999.0,-99.9,-100.00,SE,128,8.0,8.0,-999,-99.99,,,-99.99,,2013-08-18 10:23:00,
2013-08-18 02:32:00,-999.0,-99.9,-100.00,South,187,9.0,12.0,-999,-99.99,,,-99.99,,2013-08-18 10:32:00,
2013-08-18 02:43:00,-999.0,-99.9,-100.00,SW,217,22.0,22.0,-999,-99.99,,,-99.99,,2013-08-18 10:43:00,
2013-08-18 02:52:00,-999.0,-99.9,-100.00,South,183,28.0,28.0,-999,-99.99,,,-99.99,,2013-08-18 10:52:00,
2013-08-18 03:02:00,-999.0,-99.9,-100.00,South,179,22.0,22.0,-999,-99.99,,,-99.99,,2013-08-18 11:02:00,
2013-08-18 03:11:00,-999.0,-99.9,-100.00,South,184,26.0,27.0,-999,-99.99,,,-99.99,,2013-08-18 11:11:00,
2013-08-18 03:22:00,-999.0,-99.9,-100.00,South,179,33.0,33.0,-999,-99.99,,,-99.99,,2013-08-18 11:22:00,
2013-08-18 03:32:00,-999.0,-99.9,-100.00,South,184,34.0,39.0,-999,-99.99,,,-99.99,,2013-08-18 11:32:00,
2013-08-18 03:42:00,-999.0,-99.9,-100.00,South,182,33.0,36.0,-999,-99.99,,,-99.99,,2013-08-18 11:42:00,
2013-08-18 03:52:00,-999.0,-99.9,-100.00,SSW,201,20.0,28.0,-999,-99.99,,,-99.99,,2013-08-18 11:52:00,
2013-08-18 04:01:00,-999.0,-99.9,-100.00,South,190,28.0,29.0,-999,-99.99,,,-99.99,,2013-08-18 12:01:00,
2013-08-18 04:11:00,-999.0,-99.9,-100.00,South,182,26.0,30.0,-999,-99.99,,,-99.99,,2013-08-18 12:11:00,
2013-08-18 04:22:00,-999.0,-99.9,-100.00,South,182,24.0,36.0,-999,-99.99,,,-99.99,,2013-08-18 12:22:00,
2013-08-18 04:32:00,-999.0,-99.9,-100.00,SSW,193,29.0,29.0,-999,-99.99,,,-99.99,,2013-08-18 12:32:00,
2013-08-18 04:42:00,-999.0,-99.9,-100.00,South,178,25.0,32.0,-999,-99.99,,,-99.99,,2013-08-18 12:42:00,
2013-08-18 04:52:00,-999.0,-99.9,-100.00,South,178,29.0,31.0,-999,-99.99,,,-99.99,,2013-08-18 12:52:00,
2013-08-18 05:01:00,-999.0,-99.9,-100.00,South,181,31.0,33.0,-999,-99.99,,,-99.99,,2013-08-18 13:01:00,
2013-08-18 05:11:00,-999.0,-99.9,-100.00,South,182,29.0,30.0,-999,-99.99,,,-99.99,,2013-08-18 13:11:00,
2013-08-18 05:21:00,-999.0,-99.9,-100.00,South,188,31.0,31.0,-999,-99.99,,,-99.99,,2013-08-18 13:21:00,
2013-08-18 05:32:00,-999.0,-99.9,-100.00,South,181,37.0,37.0,-999,-99.99,,,-99.99,,2013-08-18 13:32:00,
2013-08-18 05:42:00,-999.0,-99.9,-100.00,South,188,32.0,32.0,-999,-99.99,,,-99.99,,2013-08-18 13:42:00,
2013-08-18 05:52:00,-999.0,-99.9,-100.00,South,187,32.0,-1.0,-999,-99.99,,,-99.99,,2013-08-18 13:52:00,
2013-08-18 06:02:00,-999.0,-99.9,-100.00,South,182,31.0,35.0,-999,-99.99,,,-99.99,,2013-08-18 14:02:00,
2013-08-18 06:11:00,-999.0,-99.9,-100.00,SSW,193,33.0,35.0,-999,-99.99,,,-99.99,,2013-08-18 14:11:00,
2013-08-18 06:22:00,-999.0,-99.9,-100.00,SSW,200,33.0,34.0,-999,-99.99,,,-99.99,,2013-08-18 14:22:00,
2013-08-18 06:32:00,-999.0,-99.9,-100.00,South,186,27.0,33.0,-999,-99.99,,,-99.99,,2013-08-18 14:32:00,
2013-08-18 06:42:00,-999.0,-99.9,-100.00,South,191,30.0,-1.0,-999,-99.99,,,-99.99,,2013-08-18 14:42:00,
2013-08-18 06:53:00,-999.0,-99.9,-100.00,South,187,29.0,29.0,-999,-99.99,,,-99.99,,2013-08-18 14:53:00,
2013-08-18 07:01:00,-999.0,-99.9,-100.00,South,180,25.0,-1.0,-999,-99.99,,,-99.99,,2013-08-18 15:01:00,
2013-08-18 07:12:00,-999.0,-99.9,-100.00,South,185,26.0,27.0,-999,-99.99,,,-99.99,,2013-08-18 15:12:00,
2013-08-18 07:22:00,-999.0,-99.9,-100.00,South,173,23.0,30.0,-999,-99.99,,,-99.99,,2013-08-18 15:22:00,
2013-08-18 07:33:00,-999.0,-99.9,-100.00,SSW,199,26.0,28.0,-999,-99.99,,,-99.99,,2013-08-18 15:33:00,
2013-08-18 07:43:00,-999.0,-99.9,-100.00,SSW,193,17.0,30.0,-999,-99.99,,,-99.99,,2013-08-18 15:43:00,
2013-08-18 07:54:00,-999.0,-99.9,-100.00,South,177,27.0,28.0,-999,-99.99,,,-99.99,,2013-08-18 15:54:00,
2013-08-18 08:03:00,-999.0,-99.9,-100.00,South,175,35.0,35.0,-999,-99.99,,,-99.99,,2013-08-18 16:03:00,
2013-08-18 08:13:00,-999.0,-99.9,-100.00,SSW,194,28.0,31.0,-999,-99.99,,,-99.99,,2013-08-18 16:13:00,
2013-08-18 08:23:00,-999.0,-99.9,-100.00,South,189,29.0,29.0,-999,-99.99,,,-99.99,,2013-08-18 16:23:00,
2013-08-18 08:33:00,-999.0,-99.9,-100.00,South,180,25.0,27.0,-999,-99.99,,,-99.99,,2013-08-18 16:33:00,
2013-08-18 08:42:00,-999.0,-99.9,-100.00,South,186,28.0,28.0,-999,-99.99,,,-99.99,,2013-08-18 16:42:00,
2013-08-18 08:52:00,-999.0,-99.9,-100.00,South,184,28.0,28.0,-999,-99.99,,,-99.99,,2013-08-18 16:52:00,
2013-08-18 09:02:00,-999.0,-99.9,-100.00,South,185,29.0,29.0,-999,-99.99,,,-99.99,,2013-08-18 17:02:00,
2013-08-18 09:13:00,-999.0,-99.9,-100.00,South,185,28.0,-1.0,-999,-99.99,,,-99.99,,2013-08-18 17:13:00,
2013-08-18 09:24:00,-999.0,-99.9,-100.00,South,186,26.0,30.0,-999,-99.99,,,-99.99,,2013-08-18 17:24:00,
2013-08-18 09:33:00,-999.0,-99.9,-100.00,South,185,24.0,28.0,-999,-99.99,,,-99.99,,2013-08-18 17:33:00,
2013-08-18 09:43:00,-999.0,-99.9,-100.00,South,186,25.0,27.0,-999,-99.99,,,-99.99,,2013-08-18 17:43:00,
2013-08-18 09:52:00,-999.0,-99.9,-100.00,South,191,22.0,28.0,-999,-99.99,,,-99.99,,2013-08-18 17:52:00,
2013-08-18 10:02:00,-999.0,-99.9,-100.00,South,185,25.0,-1.0,-999,-99.99,,,-99.99,,2013-08-18 18:02:00,
2013-08-18 10:12:00,-999.0,-99.9,-100.00,SSW,192,22.0,23.0,-999,-99.99,,,-99.99,,2013-08-18 18:12:00,
2013-08-18 10:22:00,-999.0,-99.9,-100.00,SSW,198,21.0,22.0,-999,-99.99,,,-99.99,,2013-08-18 18:22:00,
2013-08-18 10:32:00,-999.0,-99.9,-100.00,SSW,194,19.0,20.0,-999,-99.99,,,-99.99,,2013-08-18 18:32:00,
2013-08-18 10:43:00,-999.0,-99.9,-100.00,South,179,17.0,23.0,-999,-99.99,,,-99.99,,2013-08-18 18:43:00,
2013-08-18 10:52:00,-999.0,-99.9,-100.00,South,188,22.0,25.0,-999,-99.99,,,-99.99,,2013-08-18 18:52:00,
2013-08-18 11:01:00,-999.0,-99.9,-100.00,South,180,21.0,23.0,-999,-99.99,,,-99.99,,2013-08-18 19:01:00,
2013-08-18 11:11:00,-999.0,-99.9,-100.00,South,180,20.0,21.0,-999,-99.99,,,-99.99,,2013-08-18 19:11:00,
2013-08-18 11:22:00,-999.0,-99.9,-100.00,South,175,18.0,19.0,-999,-99.99,,,-99.99,,2013-08-18 19:22:00,
2013-08-18 11:32:00,-999.0,-99.9,-100.00,South,186,21.0,21.0,-999,-99.99,,,-99.99,,2013-08-18 19:32:00,
2013-08-18 11:42:00,-999.0,-99.9,-100.00,South,181,22.0,22.0,-999,-99.99,,,-99.99,,2013-08-18 19:42:00,
2013-08-18 11:52:00,-999.0,-99.9,-100.00,South,191,14.0,23.0,-999,-99.99,,,-99.99,,2013-08-18 19:52:00,
2013-08-18 12:02:00,-999.0,-99.9,-100.00,South,180,14.0,18.0,-999,-99.99,,,-99.99,,2013-08-18 20:02:00,
2013-08-18 12:12:00,-999.0,-99.9,-100.00,South,181,15.0,18.0,-999,-99.99,,,-99.99,,2013-08-18 20:12:00,
2013-08-18 12:22:00,-999.0,-99.9,-100.00,South,191,20.0,25.0,-999,-99.99,,,-99.99,,2013-08-18 20:22:00,
2013-08-18 12:32:00,-999.0,-99.9,-100.00,South,186,16.0,17.0,-999,-99.99,,,-99.99,,2013-08-18 20:32:00,
2013-08-18 12:42:00,-999.0,-99.9,-100.00,SSE,163,16.0,21.0,-999,-99.99,,,-99.99,,2013-08-18 20:42:00,
2013-08-18 12:52:00,-999.0,-99.9,-100.00,SSW,200,21.0,-1.0,-999,-99.99,,,-99.99,,2013-08-18 20:52:00,
2013-08-18 13:01:00,-999.0,-99.9,-100.00,SSW,192,16.0,19.0,-999,-99.99,,,-99.99,,2013-08-18 21:01:00,
2013-08-18 13:11:00,-999.0,-99.9,-100.00,SW,217,18.0,23.0,-999,-99.99,,,-99.99,,2013-08-18 21:11:00,
2013-08-18 13:22:00,-999.0,-99.9,-100.00,South,191,26.0,26.0,-999,-99.99,,,-99.99,,2013-08-18 21:22:00,
2013-08-18 13:33:00,-999.0,-99.9,-100.00,South,187,23.0,26.0,-999,-99.99,,,-99.99,,2013-08-18 21:33:00,
2013-08-18 13:42:00,-999.0,-99.9,-100.00,South,178,22.0,22.0,-999,-99.99,,,-99.99,,2013-08-18 21:42:00,
2013-08-18 13:54:00,-999.0,-99.9,-100.00,South,186,26.0,26.0,-999,-99.99,,,-99.99,,2013-08-18 21:54:00,
2013-08-18 14:04:00,-999.0,-99.9,-100.00,South,177,23.0,23.0,-999,-99.99,,,-99.99,,2013-08-18 22:04:00,
2013-08-18 14:13:00,-999.0,-99.9,-100.00,South,177,20.0,23.0,-999,-99.99,,,-99.99,,2013-08-18 22:13:00,
2013-08-18 14:23:00,-999.0,-99.9,-100.00,South,181,21.0,22.0,-999,-99.99,,,-99.99,,2013-08-18 22:23:00,
2013-08-18 14:34:00,-999.0,-99.9,-100.00,South,173,23.0,28.0,-999,-99.99,,,-99.99,,2013-08-18 22:34:00,
2013-08-18 14:42:00,-999.0,-99.9,-100.00,South,175,12.0,19.0,-999,-99.99,,,-99.99,,2013-08-18 22:42:00,
2013-08-18 14:52:00,-999.0,-99.9,-100.00,South,181,18.0,22.0,-999,-99.99,,,-99.99,,2013-08-18 22:52:00,
2013-08-18 15:02:00,-999.0,-99.9,-100.00,South,173,25.0,25.0,-999,-99.99,,,-99.99,,2013-08-18 23:02:00,
2013-08-18 15:11:00,-999.0,-99.9,-100.00,SSE,164,23.0,23.0,-999,-99.99,,,-99.99,,2013-08-18 23:11:00,
2013-08-18 15:22:00,-999.0,-99.9,-100.00,SSE,161,16.0,18.0,-999,-99.99,,,-99.99,,2013-08-18 23:22:00,
2013-08-18 15:33:00,-999.0,-99.9,-100.00,South,177,14.0,14.0,-999,-99.99,,,-99.99,,2013-08-18 23:33:00,
2013-08-18 15:42:00,-999.0,-99.9,-100.00,SSE,157,10.0,17.0,-999,-99.99,,,-99.99,,2013-08-18 23:42:00,
2013-08-18 15:52:00,-999.0,-99.9,-100.00,South,183,9.0,15.0,-999,-99.99,,,-99.99,,2013-08-18 23:52:00,
2013-08-18 16:03:00,-999.0,-99.9,-100.00,South,191,12.0,13.0,-999,-99.99,,,-99.99,,2013-08-19 00:03:00,
2013-08-18 16:12:00,-999.0,-99.9,-100.00,South,180,16.0,17.0,-999,-99.99,,,-99.99,,2013-08-19 00:12:00,
2013-08-18 16:22:00,-999.0,-99.9,-100.00,South,177,19.0,24.0,-999,-99.99,,,-99.99,,2013-08-19 00:22:00,
2013-08-18 16:32:00,-999.0,-99.9,-100.00,SSE,154,16.0,18.0,-999,-99.99,,,-99.99,,2013-08-19 00:32:00,
2013-08-18 16:42:00,-999.0,-99.9,-100.00,SSW,198,12.0,17.0,-999,-99.99,,,-99.99,,2013-08-19 00:42:00,
2013-08-18 16:52:00,-999.0,-99.9,-100.00,South,188,17.0,17.0,-999,-99.99,,,-99.99,,2013-08-19 00:52:00,
2013-08-18 17:02:00,-999.0,-99.9,-100.00,South,181,15.0,15.0,-999,-99.99,,,-99.99,,2013-08-19 01:02:00,
2013-08-18 17:12:00,-999.0,-99.9,-100.00,South,185,17.0,17.0,-999,-99.99,,,-99.99,,2013-08-19 01:12:00,
2013-08-18 17:22:00,-999.0,-99.9,-100.00,SSW,196,17.0,19.0,-999,-99.99,,,-99.99,,2013-08-19 01:22:00,
2013-08-18 17:32:00,-999.0,-99.9,-100.00,South,190,19.0,19.0,-999,-99.99,,,-99.99,,2013-08-19 01:32:00,
2013-08-18 17:42:00,-999.0,-99.9,-100.00,South,180,17.0,19.0,-999,-99.99,,,-99.99,,2013-08-19 01:42:00,
2013-08-18 17:52:00,-999.0,-99.9,-100.00,South,190,13.0,16.0,-999,-99.99,,,-99.99,,2013-08-19 01:52:00,
2013-08-18 18:06:00,-999.0,-99.9,-100.00,South,181,16.0,18.0,-999,-99.99,,,-99.99,,2013-08-19 02:06:00,
2013-08-18 18:11:00,-999.0,-99.9,-100.00,South,185,15.0,19.0,-999,-99.99,,,-99.99,,2013-08-19 02:11:00,
2013-08-18 18:22:00,-999.0,-99.9,-100.00,South,174,17.0,21.0,-999,-99.99,,,-99.99,,2013-08-19 02:22:00,
2013-08-18 18:32:00,-999.0,-99.9,-100.00,South,174,22.0,22.0,-999,-99.99,,,-99.99,,2013-08-19 02:32:00,
2013-08-18 18:42:00,-999.0,-99.9,-100.00,South,171,14.0,17.0,-999,-99.99,,,-99.99,,2013-08-19 02:42:00,
2013-08-18 18:52:00,-999.0,-99.9,-100.00,South,182,15.0,18.0,-999,-99.99,,,-99.99,,2013-08-19 02:52:00,
2013-08-18 19:01:00,-999.0,-99.9,-100.00,South,191,14.0,15.0,-999,-99.99,,,-99.99,,2013-08-19 03:01:00,
2013-08-18 19:11:00,-999.0,-99.9,-100.00,South,173,15.0,16.0,-999,-99.99,,,-99.99,,2013-08-19 03:11:00,
2013-08-18 19:22:00,-999.0,-99.9,-100.00,South,185,18.0,19.0,-999,-99.99,,,-99.99,,2013-08-19 03:22:00,
2013-08-18 19:33:00,-999.0,-99.9,-100.00,SSE,167,17.0,17.0,-999,-99.99,,,-99.99,,2013-08-19 03:33:00,
2013-08-18 19:42:00,-999.0,-99.9,-100.00,South,173,19.0,-1.0,-999,-99.99,,,-99.99,,2013-08-19 03:42:00,
2013-08-18 19:53:00,-999.0,-99.9,-100.00,South,176,19.0,-1.0,-999,-99.99,,,-99.99,,2013-08-19 03:53:00,
2013-08-18 20:03:00,-999.0,-99.9,-100.00,South,184,10.0,-1.0,-999,-99.99,,,-99.99,,2013-08-19 04:03:00,
2013-08-18 20:12:00,-999.0,-99.9,-100.00,South,169,15.0,21.0,-999,-99.99,,,-99.99,,2013-08-19 04:12:00,
2013-08-18 20:23:00,-999.0,-99.9,-100.00,South,181,13.0,19.0,-999,-99.99,,,-99.99,,2013-08-19 04:23:00,
2013-08-18 20:33:00,-999.0,-99.9,-100.00,SSW,197,14.0,18.0,-999,-99.99,,,-99.99,,2013-08-19 04:33:00,
2013-08-18 20:43:00,-999.0,-99.9,-100.00,SSE,164,17.0,17.0,-999,-99.99,,,-99.99,,2013-08-19 04:43:00,
2013-08-18 20:53:00,-999.0,-99.9,-100.00,South,175,17.0,18.0,-999,-99.99,,,-99.99,,2013-08-19 04:53:00,
2013-08-18 21:02:00,-999.0,-99.9,-100.00,SSE,167,18.0,19.0,-999,-99.99,,,-99.99,,2013-08-19 05:02:00,
2013-08-18 21:11:00,-999.0,-99.9,-100.00,South,178,17.0,17.0,-999,-99.99,,,-99.99,,2013-08-19 05:11:00,
2013-08-18 21:22:00,-999.0,-99.9,-100.00,South,173,20.0,20.0,-999,-99.99,,,-99.99,,2013-08-19 05:22:00,
2013-08-18 21:33:00,-999.0,-99.9,-100.00,South,173,18.0,18.0,-999,-99.99,,,-99.99,,2013-08-19 05:33:00,
2013-08-18 21:42:00,-999.0,-99.9,-100.00,South,175,18.0,-1.0,-999,-99.99,,,-99.99,,2013-08-19 05:42:00,
2013-08-18 21:52:00,-999.0,-99.9,-100.00,South,169,21.0,21.0,-999,-99.99,,,-99.99,,2013-08-19 05:52:00,
2013-08-18 22:02:00,-999.0,-99.9,-100.00,South,178,17.0,19.0,-999,-99.99,,,-99.99,,2013-08-19 06:02:00,
2013-08-18 22:11:00,-999.0,-99.9,-100.00,SSE,160,17.0,20.0,-999,-99.99,,,-99.99,,2013-08-19 06:11:00,
2013-08-18 22:21:00,-999.0,-99.9,-100.00,SSE,166,14.0,18.0,-999,-99.99,,,-99.99,,2013-08-19 06:21:00,
2013-08-18 22:32:00,-999.0,-99.9,-100.00,South,169,18.0,18.0,-999,-99.99,,,-99.99,,2013-08-19 06:32:00,
2013-08-18 22:42:00,-999.0,-99.9,-100.00,SSE,165,14.0,14.0,-999,-99.99,,,-99.99,,2013-08-19 06:42:00,
2013-08-18 22:52:00,-999.0,-99.9,-100.00,SSE,160,18.0,20.0,-999,-99.99,,,-99.99,,2013-08-19 06:52:00,
2013-08-18 23:01:00,-999.0,-99.9,-100.00,SSE,152,14.0,17.0,-999,-99.99,,,-99.99,,2013-08-19 07:01:00,
2013-08-18 23:12:00,-999.0,-99.9,-100.00,SSE,157,20.0,20.0,-999,-99.99,,,-99.99,,2013-08-19 07:12:00,
2013-08-18 23:21:00,-999.0,-99.9,-100.00,SSE,163,14.0,14.0,-999,-99.99,,,-99.99,,2013-08-19 07:21:00,
2013-08-18 23:32:00,-999.0,-99.9,-100.00,SSE,159,11.0,16.0,-999,-99.99,,,-99.99,,2013-08-19 07:32:00,
2013-08-18 23:42:00,-999.0,-99.9,-100.00,South,180,10.0,13.0,-999,-99.99,,,-99.99,,2013-08-19 07:42:00,
2013-08-18 23:52:00,-999.0,-99.9,-100.00,SSE,156,10.0,11.0,-999,-99.99,,,-99.99,,2013-08-19 07:52:00,